Content
SEND FEEDBACK

Daily
Averages
Monthly
Summary
United States of America

NEW YORK - CENTRAL PARK, NEW YORK


Home > North America > United States > New York
Elevation: 14 feet     Latitude: 40 47N     Longitude: 073 58W

WEATHER
 
SELECT A DAY
Number of Records: 151,206;   Date Range: 11/1/95 - 10/21/14
 
SHARE

PRINT THIS DATA

[ ← Previous Day ]
WEATHER ALMANAC - MAY 18, 2013
[ Next Day → ]
[ °C ]   °F
Weather ElementAverageHighLow
Temperature60.1 °F64 °F (10:51 am)55.9 °F (5:51 am)
Dewpoint48.6 °F54 °F (2:51 pm)41 °F (3:51 am)
Humidity66.6 %83 % (2:51 pm)49 % (3:51 am)
Barometer30.28 in30.31 in (9:51 am)30.21 in (1:51 am)
Wind Speed2.3 mph5.8 mph (1:51 pm)
Weather ElementAverage
Visibility10 mi
Wind DirectionNNE (27 °)

Weather ElementTotal
Precipitation0.01 in
Heating Degree Days5.1 (Base 65)
Growing Degree Days10 (Base 50)
Averaged from 23 records on May 18, 2013
WEATHER CONDITIONS BREAKOUT
WIND DIRECTION BREAKOUT
WEATHER BY HOUR - MAY 18, 2013
[ °C ]   °F
Local TimeTemperatureDewpointHumidityBarometerVisibilityWind DirectionWind SpeedGust SpeedPrecipitationEventsConditions
1:51 AM60.1 °F43.0 °F53 %30.21 in10.0 miCalmClear
2:51 AM61.0 °F43.0 °F52 %30.21 in10.0 miCalmClear
3:51 AM60.1 °F41.0 °F49 %30.22 in10.0 miWSW (250°)3.5 mphClear
4:51 AM59.0 °F46.0 °F62 %30.24 in10.0 miCalmClear
5:51 AM55.9 °F46.9 °F72 %30.26 in10.0 miCalmClear
6:51 AM57.9 °F46.0 °F65 %30.27 in10.0 miCalmClear
7:51 AM59.0 °F50.0 °F72 %30.29 in10.0 miENE (60°)3.5 mphOvercast
8:51 AM60.1 °F50.0 °F69 %30.30 in10.0 miCalmOvercast
9:51 AM62.1 °F50.0 °F65 %30.31 in10.0 miCalmMostly Cloudy
10:51 AM64.0 °F46.9 °F54 %30.30 in10.0 miVariable3.5 mphMostly Cloudy
11:51 AM63.0 °F48.0 °F58 %30.30 in10.0 miVariable4.6 mphOvercast
12:51 PM63.0 °F46.9 °F56 %30.30 in10.0 miCalmOvercast
1:51 PM62.1 °F48.0 °F60 %30.30 in10.0 miVariable5.8 mphOvercast
2:51 PM59.0 °F54.0 °F83 %30.30 in10.0 miVariable3.5 mph0.01 inOvercast
3:51 PM60.1 °F53.1 °F78 %30.31 in9.0 miSSE (160°)3.5 mphOvercast
4:51 PM60.1 °F52.0 °F75 %30.30 in10.0 miNorthOvercast
5:51 PM60.1 °F51.1 °F72 %30.29 in10.0 miVariable3.5 mphOvercast
6:51 PM60.1 °F52.0 °F75 %30.29 in10.0 miSSE (150°)3.5 mphOvercast
7:51 PM59.0 °F53.1 °F81 %30.31 in10.0 miVariable4.6 mphOvercast
8:51 PM59.0 °F52.0 °F78 %30.30 in10.0 miNorthOvercast
9:51 PM59.0 °F50.0 °F72 %30.31 in10.0 miVariable3.5 mphOvercast
10:51 PM59.0 °F48.0 °F67 %30.30 in10.0 miCalmOvercast
11:51 PM59.0 °F46.9 °F64 %30.30 in10.0 miVariable4.6 mphOvercast
Hourly data recorded from KNYC, located miles away from New York - Central Park, New York







STORIES FROM OUR PARTNERS